Wind_Speed
13 13 14 14 15 15 15 15 15 16 16 17 17 16 16 16 17 16 16 15 16 16 16 16 16 16 17 17 18 19 19 19 20 21 22 22 23 23 23 24 24 24 24
14 14 14 15 15 16 16 16 16 17 17 18 18 17 17 17 17 17 16 16 16 16 16 17 17 17 18 18 18 19 20 20 20 21 22 22 22 22 22 22 23 24 24
14 14 15 15 16 16 16 16 17 17 18 18 19 18 18 18 17 16 16 16 16 16 17 17 18 18 18 18 19 19 20 20 20 20 21 21 22 22 22 22 23 25 25
15 15 15 16 16 16 16 16 17 18 18 19 19 19 18 18 18 17 16 17 17 18 18 19 19 19 18 19 18 19 20 20 20 20 21 21 22 22 22 22 24 25 25
15 16 16 17 16 16 16 17 18 18 19 19 19 19 19 19 18 17 17 17 17 18 19 19 19 20 20 19 20 20 21 21 22 22 22 22 22 22 22 23 24 24 25
16 16 17 17 17 17 18 18 18 19 19 20 19 19 19 19 19 19 18 18 18 18 19 19 20 20 20 21 21 21 21 22 22 23 23 23 24 24 24 23 24 25 25
17 17 18 18 17 18 19 19 19 19 19 19 19 20 20 20 20 20 20 19 19 19 19 20 20 20 21 21 21 21 21 22 22 23 24 24 24 24 24 24 25 25 26
18 18 18 18 18 18 19 19 20 20 20 20 20 19 20 20 20 20 20 21 21 21 21 20 21 22 22 22 22 21 21 22 23 23 23 24 24 25 25 24 25 26 26
19 19 19 19 19 19 20 20 21 21 22 21 21 21 21 21 21 21 21 22 22 22 22 21 21 21 22 23 22 22 23 23 23 24 24 24 25 25 25 25 25 25 25
20 20 20 21 20 20 20 21 21 22 22 22 22 22 22 22 22 22 21 22 22 23 23 23 23 22 22 22 23 23 23 24 24 25 25 25 25 25 25 25 25 25 25
21 20 21 22 21 21 22 22 22 23 23 23 23 22 23 23 23 23 23 23 23 23 24 24 24 23 23 22 23 23 24 24 25 25 25 25 26 26 25 25 25 26 25
22 21 21 22 22 22 23 23 23 24 24 24 24 24 23 23 24 24 23 23 24 24 24 24 24 24 24 23 23 24 24 24 24 24 24 25 26 25 25 24 25 26 25
24 23 23 23 24 24 24 24 24 25 25 25 26 25 25 25 25 25 24 25 25 25 24 24 24 24 25 25 25 25 25 24 24 24 24 24 25 25 25 25 25 24 24
24 24 25 25 25 25 25 25 26 27 27 27 28 27 27 26 26 26 26 26 26 26 25 25 25 24 24 24 25 25 25 25 25 24 24 25 25 25 24 24 23 23 23
24 25 26 26 26 26 26 27 28 28 28 29 29 29 28 27 28 27 27 26 26 25 25 25 25 25 25 25 25 25 26 26 25 25 26 26 25 25 25 24 24 24 24
25 25 26 27 27 27 27 28 29 29 30 30 29 29 28 28 28 27 27 27 25 25 25 25 25 25 25 25 25 25 25 26 25 25 26 25 25 25 25 25 24 25 25
26 26 27 28 29 29 29 29 29 30 31 30 29 28 28 28 28 28 27 26 25 25 25 25 25 25 25 25 25 25 26 26 26 26 25 24 23 24 24 24 24 25 25
27 28 29 29 30 30 30 30 30 30 31 30 30 29 28 28 28 28 27 26 26 25 25 25 25 25 24 24 24 25 25 25 24 24 24 24 24 24 25 25 25 25 25
28 29 29 30 31 30 30 30 30 31 31 31 30 29 29 29 29 28 27 27 26 25 25 24 24 24 24 24 23 24 24 24 24 24 24 25 25 24 25 25 25 25 26
28 28 29 30 31 31 31 31 32 32 31 30 30 29 29 29 28 28 27 27 26 26 25 24 24 24 25 24 24 25 25 25 25 24 24 24 24 24 24 25 25 25 26
29 29 29 30 31 31 31 31 31 30 30 29 29 29 29 28 28 27 27 26 26 26 25 25 25 25 24 24 24 25 25 25 25 24 24 24 24 24 24 25 25 25 26
29 30 30 30 30 31 30 29 29 30 30 30 29 28 28 27 27 27 27 26 26 25 25 24 24 24 24 24 24 24 24 24 23 24 24 23 24 24 24 24 24 24 25
29 29 29 30 30 30 29 30 30 30 30 30 29 28 27 27 26 26 26 25 24 24 24 23 23 23 24 24 24 24 24 23 23 23 22 22 22 22 23 23 24 24 25
28 29 29 29 29 28 28 29 30 30 30 29 28 27 27 26 25 25 26 26 25 24 25 25 24 24 24 24 24 24 24 24 23 23 23 23 22 22 22 22 23 24 24
27 27 28 28 28 28 28 28 29 29 29 29 27 26 26 26 25 26 25 25 24 24 24 24 24 24 23 23 24 24 23 23 23 23 23 23 22 22 22 22 22 23 23
27 27 27 27 27 27 27 27 28 28 28 27 27 27 26 26 26 26 25 24 24 24 24 24 23 23 23 23 23 23 23 22 22 22 22 22 22 22 22 22 22 22 22
Wind_Direction
325 326 327 328 329 327 324 324 322 320 319 319 319 315 310 309 309 305 295 291 291 291 291 290 287 281 279 277 274 270 268 267 266 264 264 263 264 265 265 264 261 260 258
326 324 325 328 329 327 326 324 322 321 319 317 316 313 309 308 309 307 303 298 293 292 290 290 291 288 282 278 276 273 270 269 268 267 265 266 265 266 267 265 262 260 258
326 325 326 328 329 327 325 324 323 321 320 317 313 309 308 307 307 306 303 302 297 291 290 289 289 289 284 280 277 275 272 270 269 267 267 267 267 266 267 267 265 262 259
324 325 326 328 329 329 329 327 324 322 320 318 315 310 309 309 308 307 303 300 300 296 289 288 289 288 286 283 278 274 272 270 269 269 268 268 266 267 267 267 266 264 260
319 322 323 324 323 323 326 326 324 322 321 319 316 314 314 312 310 309 307 305 302 299 296 293 289 287 285 284 279 276 274 272 270 271 271 269 266 267 267 267 264 264 263
313 317 321 321 319 319 320 321 322 322 321 320 317 315 314 311 308 305 306 305 305 304 301 297 293 289 284 284 281 278 276 274 273 272 271 270 267 266 268 268 265 264 264
311 313 316 319 317 316 318 318 319 320 321 322 320 317 315 313 310 307 307 305 305 303 301 298 294 289 287 285 284 283 280 278 276 273 272 270 268 269 271 270 268 266 265
309 311 314 317 317 318 318 319 321 321 321 320 318 317 316 314 311 308 305 305 303 302 301 298 295 291 288 287 284 283 282 280 277 276 275 273 269 269 270 274 272 269 266
305 308 310 312 314 314 315 317 318 318 318 316 317 317 316 315 312 309 305 304 303 302 301 298 295 291 289 287 285 283 282 282 281 279 278 277 274 271 273 274 274 270 267
301 304 306 308 310 312 312 313 313 314 315 315 314 315 315 313 312 310 307 305 303 301 298 297 296 293 292 290 287 284 282 281 281 281 280 278 276 274 275 274 274 272 268
297 300 303 305 306 308 309 309 309 310 311 313 312 312 312 311 310 309 308 306 303 301 299 297 295 293 291 290 288 284 282 281 281 281 281 281 279 277 277 278 276 275 272
294 297 299 302 303 306 308 309 308 308 310 311 311 310 310 310 310 309 306 305 304 302 299 297 295 291 288 288 288 285 282 281 281 280 280 280 278 277 276 275 276 274 270
294 298 299 299 300 302 305 308 310 310 310 309 309 307 307 308 308 308 305 304 304 303 300 297 294 293 289 288 287 286 284 282 281 280 279 278 277 276 275 272 270 269 267
295 296 297 298 297 298 301 304 308 309 309 310 310 309 308 309 307 306 304 301 300 301 299 296 293 293 291 290 289 289 287 284 282 280 280 279 277 276 275 272 271 270 269
294 295 295 295 296 298 300 303 306 307 307 308 308 308 307 307 306 304 303 301 301 300 298 296 295 293 291 290 290 290 288 285 281 280 279 279 278 275 274 272 271 271 271
293 294 295 298 300 300 301 303 305 305 305 305 305 306 306 307 307 305 304 302 301 301 299 296 295 294 292 289 289 290 289 287 282 281 279 279 278 275 272 271 271 272 272
292 293 294 297 299 300 301 302 303 304 305 303 303 304 305 305 305 306 305 304 301 300 297 296 295 294 291 289 289 289 289 287 282 280 278 276 276 276 275 272 273 274 274
293 294 294 295 296 297 299 300 300 301 302 303 303 304 304 305 305 305 304 304 303 302 300 298 296 296 295 292 291 291 290 288 284 279 276 275 276 277 276 274 275 274 273
294 294 294 295 296 297 298 298 298 299 301 301 301 303 304 304 305 306 305 304 304 303 301 299 298 297 297 294 292 292 291 289 286 282 279 278 278 277 276 275 274 273 274
295 296 295 296 297 298 298 298 298 298 299 300 300 301 303 302 304 305 305 305 305 304 302 299 299 299 297 296 294 293 290 288 286 284 281 279 278 278 277 275 275 274 274
295 296 296 295 295 296 297 299 300 300 299 300 300 301 302 301 301 302 303 305 305 304 301 301 300 299 298 297 295 294 294 290 286 283 282 281 279 278 277 276 275 275 273
295 297 297 297 297 298 299 299 299 299 301 302 301 299 299 300 301 302 303 304 305 304 302 302 303 300 298 298 296 293 292 291 289 286 283 281 279 277 277 277 278 277 275
293 295 297 297 297 298 297 298 300 299 300 302 302 300 299 299 301 303 303 304 305 305 305 304 304 303 301 299 297 294 293 291 290 288 284 282 281 279 278 279 279 278 276
292 294 296 297 297 299 299 299 300 300 300 301 301 299 299 299 301 303 303 302 303 304 306 306 304 303 300 299 298 296 294 292 291 289 284 282 281 281 283 282 281 278 276
290 293 295 296 298 299 300 300 301 302 303 303 300 299 299 299 301 302 302 302 302 303 305 305 306 306 303 300 298 297 295 292 291 288 285 283 281 281 284 284 282 279 277
291 293 294 295 297 298 299 301 301 302 304 304 303 303 302 301 301 302 302 302 302 303 305 305 305 305 305 304 302 300 297 294 291 289 286 284 283 282 283 284 282 280 277
Height
5861 5859 5857 5854 5852 5849 5846 5844 5842 5839 5837 5835 5832 5830 5828 5825 5823 5821 5820 5818 5817 5816 5815 5814 5813 5812 5812 5812 5812 5812 5812 5813 5813 5813 5813 5813 5814 5814 5814 5814 5814 5815 5816
5858 5856 5854 5852 5849 5847 5844 5841 5839 5836 5834 5831 5829 5826 5824 5822 5820 5818 5816 5814 5813 5812 5810 5810 5809 5808 5807 5807 5807 5806 5807 5807 5807 5807 5807 5807 5807 5807 5807 5807 5808 5808 5809
5855 5853 5851 5849 5846 5844 5841 5839 5836 5833 5830 5827 5825 5822 5820 5818 5816 5814 5812 5810 5809 5807 5806 5805 5804 5803 5802 5802 5801 5801 5801 5801 5801 5801 5801 5801 5801 5801 5801 5801 5801 5802 5802
5853 5850 5848 5845 5843 5841 5838 5835 5833 5830 5827 5824 5821 5818 5816 5814 5812 5810 5808 5806 5804 5802 5801 5800 5799 5798 5797 5796 5796 5795 5795 5794 5794 5795 5794 5794 5794 5794 5795 5795 5795 5795 5795
5849 5847 5844 5842 5839 5837 5835 5832 5829 5826 5823 5820 5817 5814 5812 5810 5808 5806 5804 5802 5800 5798 5796 5794 5793 5792 5791 5791 5790 5789 5789 5788 5788 5788 5788 5788 5788 5788 5788 5788 5788 5788 5788
5846 5843 5841 5838 5836 5834 5831 5829 5826 5823 5820 5817 5813 5811 5808 5806 5804 5801 5799 5797 5795 5793 5791 5789 5788 5786 5786 5785 5784 5783 5783 5782 5782 5781 5781 5781 5781 5781 5781 5780 5780 5781 5781
5842 5840 5837 5835 5832 5830 5827 5825 5822 5819 5816 5813 5810 5807 5804 5802 5799 5797 5795 5792 5790 5788 5786 5784 5782 5781 5780 5778 5777 5776 5776 5775 5775 5775 5774 5774 5774 5774 5774 5773 5773 5773 5773
5838 5836 5833 5831 5828 5826 5823 5820 5818 5815 5812 5809 5806 5803 5800 5797 5795 5792 5790 5787 5785 5783 5780 5778 5777 5775 5774 5772 5771 5770 5769 5769 5768 5768 5768 5767 5767 5766 5766 5766 5765 5765 5765
5833 5831 5828 5826 5824 5821 5819 5816 5813 5810 5807 5804 5801 5798 5795 5792 5790 5787 5784 5782 5779 5777 5775 5773 5771 5769 5767 5766 5765 5764 5763 5762 5761 5761 5760 5760 5759 5759 5758 5758 5757 5757 5757
5828 5825 5823 5821 5819 5816 5814 5811 5808 5805 5802 5799 5796 5793 5790 5787 5784 5781 5779 5776 5773 5771 5769 5766 5764 5762 5761 5759 5758 5757 5756 5755 5754 5753 5753 5752 5752 5751 5750 5750 5749 5749 5749
5822 5819 5817 5815 5813 5811 5808 5805 5803 5800 5797 5794 5791 5788 5785 5782 5779 5776 5772 5770 5767 5764 5762 5760 5758 5756 5754 5752 5751 5750 5749 5748 5747 5746 5745 5745 5744 5743 5742 5742 5742 5742 5742
5816 5814 5812 5809 5807 5804 5802 5799 5796 5794 5791 5788 5785 5782 5779 5776 5773 5769 5766 5763 5760 5758 5755 5753 5751 5749 5747 5746 5744 5743 5742 5741 5739 5739 5738 5737 5736 5735 5735 5734 5734 5734 5734
5809 5807 5805 5803 5801 5798 5796 5793 5790 5787 5784 5781 5779 5775 5772 5769 5766 5763 5760 5757 5753 5751 5748 5746 5743 5741 5740 5739 5737 5736 5734 5733 5732 5731 5730 5729 5728 5727 5727 5727 5726 5726 5726
5803 5801 5799 5796 5794 5792 5789 5787 5784 5781 5777 5775 5772 5768 5765 5762 5759 5756 5752 5749 5746 5743 5741 5738 5736 5734 5733 5731 5729 5728 5726 5725 5724 5723 5722 5721 5720 5719 5719 5719 5719 5718 5719
5796 5794 5792 5789 5787 5785 5783 5780 5777 5774 5771 5768 5764 5761 5758 5755 5752 5748 5745 5742 5739 5736 5733 5731 5729 5727 5725 5723 5722 5720 5718 5716 5715 5715 5714 5713 5712 5711 5711 5711 5711 5711 5711
5789 5787 5785 5782 5780 5777 5775 5773 5770 5767 5764 5760 5757 5754 5751 5748 5744 5741 5737 5735 5732 5729 5726 5723 5721 5719 5717 5715 5714 5712 5710 5708 5707 5706 5705 5704 5704 5703 5703 5703 5702 5702 5702
5781 5780 5778 5775 5773 5771 5768 5766 5763 5760 5757 5753 5749 5746 5743 5740 5736 5733 5730 5727 5724 5721 5718 5716 5713 5711 5709 5707 5706 5704 5702 5700 5699 5698 5697 5696 5695 5695 5695 5694 5694 5694 5693
5774 5772 5770 5767 5765 5763 5760 5758 5755 5752 5749 5746 5742 5739 5735 5732 5729 5726 5723 5720 5717 5713 5711 5708 5705 5703 5701 5699 5698 5696 5694 5692 5690 5689 5688 5687 5687 5687 5686 5686 5685 5685 5684
5765 5763 5761 5759 5757 5754 5752 5749 5746 5743 5741 5738 5734 5731 5728 5725 5722 5719 5715 5712 5709 5706 5703 5700 5698 5695 5693 5691 5690 5688 5686 5683 5682 5680 5680 5679 5678 5677 5677 5677 5676 5676 5676
5757 5755 5753 5751 5748 5746 5744 5741 5738 5735 5733 5729 5726 5723 5720 5717 5714 5711 5708 5705 5702 5699 5696 5693 5690 5688 5686 5684 5681 5679 5677 5675 5673 5672 5671 5670 5669 5669 5668 5668 5667 5667 5667
5749 5747 5745 5743 5740 5738 5735 5733 5730 5727 5724 5721 5718 5715 5712 5709 5706 5703 5700 5697 5694 5691 5688 5686 5683 5680 5678 5675 5673 5671 5669 5666 5664 5663 5662 5661 5660 5660 5659 5659 5658 5658 5657
5741 5739 5737 5735 5732 5730 5727 5725 5722 5719 5716 5713 5709 5706 5704 5701 5698 5696 5693 5690 5687 5684 5681 5678 5675 5673 5670 5668 5665 5663 5660 5658 5656 5655 5654 5653 5652 5651 5650 5650 5650 5649 5648
5733 5731 5728 5726 5724 5722 5719 5717 5713 5710 5708 5704 5701 5699 5696 5693 5691 5688 5685 5682 5680 5677 5674 5671 5668 5666 5663 5660 5657 5655 5653 5651 5649 5647 5646 5645 5644 5643 5642 5642 5641 5640 5639
5725 5723 5720 5718 5716 5714 5711 5708 5706 5703 5700 5697 5694 5691 5689 5686 5683 5681 5678 5675 5672 5670 5667 5664 5661 5658 5655 5652 5650 5647 5645 5643 5641 5640 5638 5637 5636 5635 5634 5633 5632 5631 5630
5716 5714 5712 5710 5708 5706 5703 5701 5698 5695 5692 5689 5686 5683 5681 5678 5676 5673 5670 5668 5665 5663 5660 5657 5654 5651 5648 5645 5642 5640 5638 5636 5634 5632 5630 5629 5628 5627 5627 5626 5624 5623 5622
5708 5706 5705 5703 5700 5698 5696 5693 5690 5688 5685 5681 5679 5676 5673 5671 5668 5666 5663 5660 5658 5655 5653 5650 5647 5644 5641 5638 5635 5632 5630 5628 5626 5625 5623 5622 5621 5620 5619 5618 5617 5615 5614